Time,TemperatureF,DewpointF,PressureIn,WindDirection,WindDirectionDegrees,WindSpeedMPH,WindSpeedGustMPH,Humidity,HourlyPrecipIn,Conditions,Clouds,dailyrainin,SoftwareType,DateUTC
2013-03-19 00:00:00,42.4,33.0,30.11,North,9,0.0,0.0,69,0.00,,---,0.00,VWS V14.01,2013-03-19 07:00:00,
2013-03-19 00:06:00,42.3,33.4,30.11,North,9,0.0,0.0,70,0.00,,---,0.00,VWS V14.01,2013-03-19 07:06:00,
2013-03-19 00:12:00,42.3,33.4,30.11,ENE,76,0.0,0.0,70,0.00,,---,0.00,VWS V14.01,2013-03-19 07:12:00,
2013-03-19 00:18:00,42.3,34.4,30.11,East,88,2.2,4.0,74,0.00,,---,0.00,VWS V14.01,2013-03-19 07:18:00,
2013-03-19 00:24:00,41.9,34.1,30.11,South,175,0.0,0.0,74,0.00,,---,0.00,VWS V14.01,2013-03-19 07:24:00,
2013-03-19 00:30:00,41.5,33.2,30.11,South,175,0.0,0.0,72,0.00,,---,0.00,VWS V14.01,2013-03-19 07:30:00,
2013-03-19 00:35:00,41.2,32.8,30.11,NNE,24,0.0,0.0,72,0.00,,---,0.00,VWS V14.01,2013-03-19 07:35:00,
2013-03-19 00:40:00,40.8,33.0,30.11,ENE,68,3.1,3.1,74,0.00,,---,0.00,VWS V14.01,2013-03-19 07:40:00,
2013-03-19 00:46:00,40.6,32.8,30.11,SE,124,2.2,2.7,74,0.00,,---,0.00,VWS V14.01,2013-03-19 07:46:00,
2013-03-19 00:52:00,40.6,32.8,30.11,ENE,76,0.0,0.0,74,0.00,,---,0.00,VWS V14.01,2013-03-19 07:52:00,
2013-03-19 00:57:00,40.6,32.8,30.11,ENE,70,0.0,0.0,74,0.00,,---,0.00,VWS V14.01,2013-03-19 07:57:00,
2013-03-19 01:02:00,40.5,32.7,30.11,ENE,70,0.0,0.0,74,0.00,,---,0.00,VWS V14.01,2013-03-19 08:02:00,
2013-03-19 01:07:00,40.3,32.5,30.11,East,91,0.0,2.7,74,0.00,,---,0.00,VWS V14.01,2013-03-19 08:07:00,
2013-03-19 01:13:00,40.1,32.3,30.11,ESE,106,0.0,0.0,74,0.00,,---,0.00,VWS V14.01,2013-03-19 08:13:00,
2013-03-19 01:18:00,40.1,32.3,30.11,East,98,4.0,4.0,74,0.00,,---,0.00,VWS V14.01,2013-03-19 08:18:00,
2013-03-19 01:24:00,40.3,33.0,30.11,ENE,62,5.4,5.4,75,0.00,,---,0.00,VWS V14.01,2013-03-19 08:24:00,
2013-03-19 01:29:00,40.1,33.3,30.11,East,98,2.7,3.1,76,0.00,,---,0.00,VWS V14.01,2013-03-19 08:29:00,
2013-03-19 01:35:00,39.9,33.1,30.11,NE,50,3.1,4.0,76,0.00,,---,0.00,VWS V14.01,2013-03-19 08:35:00,
2013-03-19 01:40:00,39.0,31.8,30.08,North,2,2.2,2.2,75,0.00,,---,0.00,VWS V14.01,2013-03-19 08:40:00,
2013-03-19 01:45:00,38.7,31.4,30.08,North,2,0.0,0.0,75,0.00,,---,0.00,VWS V14.01,2013-03-19 08:45:00,
2013-03-19 01:50:00,38.5,31.8,30.08,North,2,0.0,0.0,76,0.00,,---,0.00,VWS V14.01,2013-03-19 08:50:00,
2013-03-19 01:57:00,38.7,31.9,30.08,North,2,0.0,0.0,76,0.00,,---,0.00,VWS V14.01,2013-03-19 08:57:00,
2013-03-19 02:02:00,38.7,31.9,30.08,North,2,0.0,0.0,76,0.00,,---,0.00,VWS V14.01,2013-03-19 09:02:00,
2013-03-19 02:08:00,38.7,31.9,30.08,North,2,0.0,0.0,76,0.00,,---,0.00,VWS V14.01,2013-03-19 09:08:00,
2013-03-19 02:13:00,38.5,31.8,30.11,SE,131,3.6,4.0,76,0.00,,---,0.00,VWS V14.01,2013-03-19 09:13:00,
2013-03-19 02:18:00,38.3,31.6,30.11,East,92,2.7,3.6,76,0.00,,---,0.00,VWS V14.01,2013-03-19 09:18:00,
2013-03-19 02:23:00,38.1,31.4,30.11,ENE,69,2.2,2.7,76,0.00,,---,0.00,VWS V14.01,2013-03-19 09:23:00,
2013-03-19 02:29:00,38.5,32.2,30.11,ENE,68,4.0,5.8,78,0.00,,---,0.00,VWS V14.01,2013-03-19 09:29:00,
2013-03-19 02:35:00,37.9,31.7,30.11,NE,53,0.0,0.0,78,0.00,,---,0.00,VWS V14.01,2013-03-19 09:35:00,
2013-03-19 02:41:00,37.2,31.0,30.11,NNW,345,0.0,0.0,78,0.00,,---,0.00,VWS V14.01,2013-03-19 09:41:00,
2013-03-19 02:46:00,36.9,30.6,30.11,NNW,345,0.0,0.0,78,0.00,,---,0.00,VWS V14.01,2013-03-19 09:46:00,
2013-03-19 02:52:00,36.9,30.6,30.11,NNW,345,0.0,0.0,78,0.00,,---,0.00,VWS V14.01,2013-03-19 09:52:00,
2013-03-19 02:57:00,36.7,30.5,30.08,NNW,345,0.0,0.0,78,0.00,,---,0.00,VWS V14.01,2013-03-19 09:57:00,
2013-03-19 03:02:00,36.7,30.5,30.08,NNW,345,0.0,0.0,78,0.00,,---,0.00,VWS V14.01,2013-03-19 10:02:00,
2013-03-19 03:08:00,36.7,30.5,30.08,ENE,61,0.0,0.0,78,0.00,,---,0.00,VWS V14.01,2013-03-19 10:08:00,
2013-03-19 03:13:00,36.5,30.3,30.08,NE,50,0.0,0.0,78,0.00,,---,0.00,VWS V14.01,2013-03-19 10:13:00,
2013-03-19 03:20:00,36.3,30.1,30.08,NNE,19,0.0,0.0,78,0.00,,---,0.00,VWS V14.01,2013-03-19 10:20:00,
2013-03-19 03:25:00,36.3,30.1,30.08,NNE,15,0.0,0.0,78,0.00,,---,0.00,VWS V14.01,2013-03-19 10:25:00,
2013-03-19 03:30:00,36.3,30.1,30.08,NNE,15,0.0,0.0,78,0.00,,---,0.00,VWS V14.01,2013-03-19 10:30:00,
2013-03-19 03:36:00,36.0,29.8,30.08,NNE,15,0.0,0.0,78,0.00,,---,0.00,VWS V14.01,2013-03-19 10:36:00,
2013-03-19 03:41:00,35.6,29.4,30.08,NNE,15,0.0,0.0,78,0.00,,---,0.00,VWS V14.01,2013-03-19 10:41:00,
2013-03-19 03:46:00,35.6,29.4,30.08,NNE,15,0.0,0.0,78,0.00,,---,0.00,VWS V14.01,2013-03-19 10:46:00,
2013-03-19 03:54:00,35.8,29.6,30.08,SW,234,0.0,0.0,78,0.00,,---,0.00,VWS V14.01,2013-03-19 10:54:00,
2013-03-19 03:59:00,35.8,29.6,30.08,SW,234,0.0,0.0,78,0.00,,---,0.00,VWS V14.01,2013-03-19 10:59:00,
2013-03-19 04:05:00,35.4,29.2,30.08,NNE,20,0.0,0.0,78,0.00,,---,0.00,VWS V14.01,2013-03-19 11:05:00,
2013-03-19 04:11:00,35.4,29.2,30.08,NNE,20,0.0,0.0,78,0.00,,---,0.00,VWS V14.01,2013-03-19 11:11:00,
2013-03-19 04:17:00,35.1,28.9,30.08,NNE,17,0.0,0.0,78,0.00,,---,0.00,VWS V14.01,2013-03-19 11:17:00,
2013-03-19 04:22:00,34.9,28.7,30.08,NNE,16,0.0,0.0,78,0.00,,---,0.00,VWS V14.01,2013-03-19 11:22:00,
2013-03-19 04:28:00,34.9,28.7,30.08,NNE,16,0.0,0.0,78,0.00,,---,0.00,VWS V14.01,2013-03-19 11:28:00,
2013-03-19 04:34:00,34.9,28.7,30.08,NNE,16,0.0,0.0,78,0.00,,---,0.00,VWS V14.01,2013-03-19 11:34:00,
2013-03-19 04:40:00,34.9,28.7,30.11,NE,35,3.1,3.1,78,0.00,,---,0.00,VWS V14.01,2013-03-19 11:40:00,
2013-03-19 04:45:00,34.7,29.0,30.11,NE,39,2.7,2.7,80,0.00,,---,0.00,VWS V14.01,2013-03-19 11:45:00,
2013-03-19 04:50:00,35.1,29.4,30.11,NE,39,0.0,0.0,80,0.00,,---,0.00,VWS V14.01,2013-03-19 11:50:00,
2013-03-19 04:56:00,35.1,29.4,30.11,East,94,0.0,0.0,80,0.00,,---,0.00,VWS V14.01,2013-03-19 11:56:00,
2013-03-19 05:01:00,35.4,29.7,30.11,East,94,0.0,0.0,80,0.00,,---,0.00,VWS V14.01,2013-03-19 12:01:00,
2013-03-19 05:07:00,35.4,29.7,30.11,East,94,0.0,0.0,80,0.00,,---,0.00,VWS V14.01,2013-03-19 12:07:00,
2013-03-19 05:13:00,35.2,29.5,30.11,North,353,0.0,0.0,80,0.00,,---,0.00,VWS V14.01,2013-03-19 12:13:00,
2013-03-19 05:19:00,35.1,29.4,30.11,North,349,0.0,0.0,80,0.00,,---,0.00,VWS V14.01,2013-03-19 12:19:00,
2013-03-19 05:24:00,35.2,29.5,30.11,North,349,0.0,0.0,80,0.00,,---,0.00,VWS V14.01,2013-03-19 12:24:00,
2013-03-19 05:30:00,35.6,30.4,30.11,NNW,332,0.0,0.0,81,0.00,,---,0.00,VWS V14.01,2013-03-19 12:30:00,
2013-03-19 05:35:00,35.8,30.5,30.11,NNW,332,0.0,0.0,81,0.00,,---,0.00,VWS V14.01,2013-03-19 12:35:00,
2013-03-19 05:41:00,36.1,31.3,30.08,NNW,332,0.0,0.0,82,0.00,,---,0.00,VWS V14.01,2013-03-19 12:41:00,
2013-03-19 05:46:00,36.3,31.5,30.08,NNW,332,0.0,0.0,82,0.00,,---,0.00,VWS V14.01,2013-03-19 12:46:00,
2013-03-19 05:52:00,36.5,31.7,30.08,NNW,332,0.0,0.0,82,0.00,,---,0.00,VWS V14.01,2013-03-19 12:52:00,
2013-03-19 05:57:00,36.7,31.9,30.11,NNW,332,0.0,0.0,82,0.00,,---,0.00,VWS V14.01,2013-03-19 12:57:00,
2013-03-19 06:03:00,37.0,32.2,30.11,NNW,332,0.0,0.0,82,0.00,,---,0.00,VWS V14.01,2013-03-19 13:03:00,
2013-03-19 06:08:00,37.4,32.6,30.11,NNW,332,0.0,0.0,82,0.00,,---,0.00,VWS V14.01,2013-03-19 13:08:00,
2013-03-19 06:13:00,37.4,32.6,30.11,NNW,332,0.0,0.0,82,0.00,,---,0.00,VWS V14.01,2013-03-19 13:13:00,
2013-03-19 06:19:00,37.6,33.2,30.11,NNW,332,0.0,0.0,84,0.00,,---,0.00,VWS V14.01,2013-03-19 13:19:00,
2013-03-19 06:25:00,37.9,34.0,30.11,West,262,0.0,0.0,86,0.00,,---,0.00,VWS V14.01,2013-03-19 13:25:00,
2013-03-19 06:30:00,38.1,34.2,30.11,West,262,0.0,0.0,86,0.00,,---,0.00,VWS V14.01,2013-03-19 13:30:00,
2013-03-19 06:35:00,38.5,35.0,30.11,West,262,0.0,0.0,87,0.00,,---,0.00,VWS V14.01,2013-03-19 13:35:00,
2013-03-19 06:40:00,38.5,35.4,30.11,West,262,0.0,0.0,88,0.00,,---,0.00,VWS V14.01,2013-03-19 13:40:00,
2013-03-19 06:46:00,38.5,35.4,30.11,West,262,0.0,0.0,88,0.00,,---,0.00,VWS V14.01,2013-03-19 13:46:00,
2013-03-19 06:52:00,38.7,35.6,30.11,West,262,0.0,0.0,88,0.00,,---,0.00,VWS V14.01,2013-03-19 13:52:00,
2013-03-19 06:57:00,38.8,35.7,30.11,South,177,3.6,3.6,88,0.00,,---,0.00,VWS V14.01,2013-03-19 13:57:00,
2013-03-19 07:03:00,38.8,35.7,30.11,South,183,0.0,2.2,88,0.00,,---,0.00,VWS V14.01,2013-03-19 14:03:00,
2013-03-19 07:08:00,39.2,36.1,30.11,South,183,0.0,0.0,88,0.00,,---,0.00,VWS V14.01,2013-03-19 14:08:00,
2013-03-19 07:14:00,39.4,36.3,30.11,South,183,0.0,0.0,88,0.00,,---,0.00,VWS V14.01,2013-03-19 14:14:00,
2013-03-19 07:20:00,39.7,36.6,30.11,South,191,0.0,0.0,88,0.00,,---,0.00,VWS V14.01,2013-03-19 14:20:00,
2013-03-19 07:25:00,40.1,37.4,30.11,South,191,0.0,0.0,90,0.00,,---,0.00,VWS V14.01,2013-03-19 14:25:00,
2013-03-19 07:31:00,40.5,37.8,30.11,South,191,0.0,0.0,90,0.00,,---,0.00,VWS V14.01,2013-03-19 14:31:00,
2013-03-19 07:36:00,40.6,37.9,30.11,South,191,0.0,0.0,90,0.00,,---,0.00,VWS V14.01,2013-03-19 14:36:00,
2013-03-19 07:41:00,41.0,38.3,30.11,South,191,0.0,0.0,90,0.00,,---,0.00,VWS V14.01,2013-03-19 14:41:00,
2013-03-19 07:47:00,41.2,38.5,30.11,South,191,0.0,0.0,90,0.00,,---,0.00,VWS V14.01,2013-03-19 14:47:00,
2013-03-19 07:53:00,41.2,38.0,30.11,NNW,331,0.0,0.0,88,0.00,,---,0.00,VWS V14.01,2013-03-19 14:53:00,
2013-03-19 07:58:00,41.4,38.7,30.14,NNW,336,0.0,0.0,90,0.00,,---,0.00,VWS V14.01,2013-03-19 14:58:00,
2013-03-19 08:04:00,41.7,39.4,30.14,WSW,243,0.0,0.0,92,0.00,,---,0.00,VWS V14.01,2013-03-19 15:04:00,
2013-03-19 08:09:00,42.3,40.4,30.14,WSW,241,0.0,0.0,93,0.00,,---,0.00,VWS V14.01,2013-03-19 15:09:00,
2013-03-19 08:14:00,42.6,40.7,30.14,ESE,111,0.0,0.0,93,0.00,,---,0.00,VWS V14.01,2013-03-19 15:14:00,
2013-03-19 08:20:00,43.3,41.9,30.14,ENE,59,0.0,2.2,94,0.00,,---,0.00,VWS V14.01,2013-03-19 15:20:00,
2013-03-19 08:26:00,44.4,43.3,30.14,ENE,60,0.0,0.0,96,0.00,,---,0.00,VWS V14.01,2013-03-19 15:26:00,
2013-03-19 08:32:00,45.9,45.6,30.14,East,80,0.0,0.0,99,0.00,,---,0.00,VWS V14.01,2013-03-19 15:32:00,
2013-03-19 08:37:00,46.8,46.1,30.14,East,91,0.0,0.0,98,0.00,,---,0.00,VWS V14.01,2013-03-19 15:37:00,
2013-03-19 08:43:00,48.2,47.5,30.14,East,92,0.0,0.0,98,0.00,,---,0.00,VWS V14.01,2013-03-19 15:43:00,
2013-03-19 08:49:00,50.0,49.7,30.14,SSE,149,0.0,0.0,99,0.00,,---,0.00,VWS V14.01,2013-03-19 15:49:00,
2013-03-19 08:54:00,51.4,51.4,30.14,West,268,4.0,4.0,100,0.00,,---,0.00,VWS V14.01,2013-03-19 15:54:00,
2013-03-19 08:59:00,52.7,52.7,30.14,West,267,4.0,5.8,100,0.00,,---,0.00,VWS V14.01,2013-03-19 15:59:00,
2013-03-19 09:04:00,53.8,49.5,30.14,West,269,3.6,4.0,86,0.00,,---,0.00,VWS V14.01,2013-03-19 16:04:00,
2013-03-19 09:09:00,53.8,45.5,30.14,NW,304,3.6,4.0,74,0.00,,---,0.00,VWS V14.01,2013-03-19 16:09:00,
2013-03-19 09:14:00,56.3,46.8,30.14,West,262,4.0,5.8,70,0.00,,---,0.00,VWS V14.01,2013-03-19 16:14:00,
2013-03-19 09:20:00,57.9,46.6,30.14,West,260,5.8,6.3,66,0.00,,---,0.00,VWS V14.01,2013-03-19 16:20:00,
2013-03-19 09:26:00,58.8,45.6,30.14,WSW,243,3.6,4.0,62,0.00,,---,0.00,VWS V14.01,2013-03-19 16:26:00,
2013-03-19 09:31:00,59.4,44.1,30.14,WNW,285,5.8,8.1,57,0.00,,---,0.00,VWS V14.01,2013-03-19 16:31:00,
2013-03-19 09:37:00,59.7,43.1,30.14,WSW,251,5.4,8.3,54,0.00,,---,0.00,VWS V14.01,2013-03-19 16:37:00,
2013-03-19 09:42:00,60.4,43.0,30.14,West,267,6.3,6.3,52,0.00,,---,0.00,VWS V14.01,2013-03-19 16:42:00,
2013-03-19 09:48:00,61.3,43.1,30.14,West,271,5.8,10.1,51,0.00,,---,0.00,VWS V14.01,2013-03-19 16:48:00,
2013-03-19 09:54:00,61.5,40.8,30.14,WNW,299,6.3,6.3,46,0.00,,---,0.00,VWS V14.01,2013-03-19 16:54:00,
2013-03-19 10:00:00,61.7,38.4,30.14,West,265,8.3,8.7,42,0.00,,---,0.00,VWS V14.01,2013-03-19 17:00:00,
2013-03-19 10:05:00,61.7,37.5,30.14,NW,318,7.6,10.1,40,0.00,,---,0.00,VWS V14.01,2013-03-19 17:05:00,
2013-03-19 10:11:00,63.0,37.6,30.14,WSW,241,3.6,12.3,39,0.00,,---,0.00,VWS V14.01,2013-03-19 17:11:00,
2013-03-19 10:16:00,63.7,37.3,30.14,WSW,238,12.8,13.2,38,0.00,,---,0.00,VWS V14.01,2013-03-19 17:16:00,
2013-03-19 10:21:00,63.9,36.4,30.14,SSW,207,10.5,12.3,36,0.00,,---,0.00,VWS V14.01,2013-03-19 17:21:00,
2013-03-19 10:27:00,64.2,36.7,30.14,SW,219,10.1,12.8,36,0.00,,---,0.00,VWS V14.01,2013-03-19 17:27:00,
2013-03-19 10:32:00,64.0,36.6,30.14,SW,223,10.1,11.0,36,0.00,,---,0.00,VWS V14.01,2013-03-19 17:32:00,
2013-03-19 10:37:00,64.6,36.0,30.14,WSW,254,10.1,10.5,34,0.00,,---,0.00,VWS V14.01,2013-03-19 17:37:00,
2013-03-19 10:42:00,64.4,35.8,30.14,West,281,10.1,10.1,34,0.00,,---,0.00,VWS V14.01,2013-03-19 17:42:00,
2013-03-19 10:47:00,64.2,36.7,30.14,WSW,249,11.0,11.0,36,0.00,,---,0.00,VWS V14.01,2013-03-19 17:47:00,
2013-03-19 10:53:00,64.2,36.7,30.14,WSW,254,7.6,8.7,36,0.00,,---,0.00,VWS V14.01,2013-03-19 17:53:00,
2013-03-19 10:58:00,64.4,35.8,30.14,WSW,246,12.3,14.1,34,0.00,,---,0.00,VWS V14.01,2013-03-19 17:58:00,
2013-03-19 11:05:00,64.8,36.1,30.14,WSW,244,10.1,10.1,34,0.00,,---,0.00,VWS V14.01,2013-03-19 18:05:00,
2013-03-19 11:10:00,64.9,36.3,30.14,WSW,251,8.7,11.9,34,0.00,,---,0.00,VWS V14.01,2013-03-19 18:10:00,
2013-03-19 11:15:00,65.1,36.5,30.14,West,259,8.3,10.1,34,0.00,,---,0.00,VWS V14.01,2013-03-19 18:15:00,
2013-03-19 11:21:00,64.9,32.8,30.14,WSW,248,13.2,13.2,30,0.00,,---,0.00,VWS V14.01,2013-03-19 18:21:00,
2013-03-19 11:27:00,64.8,32.6,30.14,WSW,253,13.2,15.0,30,0.00,,---,0.00,VWS V14.01,2013-03-19 18:27:00,
2013-03-19 11:32:00,64.6,32.5,30.14,WNW,303,10.5,12.3,30,0.00,,---,0.00,VWS V14.01,2013-03-19 18:32:00,
2013-03-19 11:37:00,64.8,32.6,30.14,West,269,11.0,12.8,30,0.00,,---,0.00,VWS V14.01,2013-03-19 18:37:00,
2013-03-19 11:43:00,65.3,33.1,30.14,WSW,243,11.9,11.9,30,0.00,,---,0.00,VWS V14.01,2013-03-19 18:43:00,
2013-03-19 11:48:00,65.3,33.1,30.14,SW,226,10.5,13.2,30,0.00,,---,0.00,VWS V14.01,2013-03-19 18:48:00,
2013-03-19 11:54:00,66.2,33.9,30.14,WSW,238,10.5,10.5,30,0.00,,---,0.00,VWS V14.01,2013-03-19 18:54:00,
2013-03-19 11:59:00,66.4,34.0,30.14,WSW,248,8.1,12.3,30,0.00,,---,0.00,VWS V14.01,2013-03-19 18:59:00,
2013-03-19 12:05:00,67.6,35.1,30.14,SSW,203,4.9,8.3,30,0.00,,---,0.00,VWS V14.01,2013-03-19 19:05:00,
2013-03-19 12:10:00,68.0,35.4,30.14,SSW,196,5.4,8.1,30,0.00,,---,0.00,VWS V14.01,2013-03-19 19:10:00,
2013-03-19 12:17:00,68.2,35.6,30.14,NW,304,4.0,5.8,30,0.00,,---,0.00,VWS V14.01,2013-03-19 19:17:00,
2013-03-19 12:22:00,68.5,31.8,30.14,SW,214,4.0,7.6,26,0.00,,---,0.00,VWS V14.01,2013-03-19 19:22:00,
2013-03-19 12:28:00,69.3,32.5,30.14,West,270,8.7,8.7,26,0.00,,---,0.00,VWS V14.01,2013-03-19 19:28:00,
2013-03-19 12:33:00,69.1,32.3,30.14,West,268,4.0,8.7,26,0.00,,---,0.00,VWS V14.01,2013-03-19 19:33:00,
2013-03-19 12:39:00,68.4,31.7,30.14,NNW,334,7.6,8.7,26,0.00,,---,0.00,VWS V14.01,2013-03-19 19:39:00,
2013-03-19 12:44:00,67.6,31.1,30.14,West,267,7.6,7.6,26,0.00,,---,0.00,VWS V14.01,2013-03-19 19:44:00,
2013-03-19 12:50:00,68.7,32.0,30.14,WSW,251,10.1,10.1,26,0.00,,---,0.00,VWS V14.01,2013-03-19 19:50:00,
2013-03-19 12:55:00,68.2,31.5,30.14,NW,304,8.3,8.7,26,0.00,,---,0.00,VWS V14.01,2013-03-19 19:55:00,
2013-03-19 13:01:00,69.1,32.3,30.14,West,264,8.3,12.8,26,0.00,,---,0.00,VWS V14.01,2013-03-19 20:01:00,
2013-03-19 13:07:00,68.9,32.2,30.14,West,268,5.4,7.6,26,0.00,,---,0.00,VWS V14.01,2013-03-19 20:07:00,
2013-03-19 13:12:00,68.9,32.2,30.14,WNW,287,7.6,10.1,26,0.00,,---,0.00,VWS V14.01,2013-03-19 20:12:00,
2013-03-19 13:18:00,68.5,31.8,30.14,SW,224,11.0,11.0,26,0.00,,---,0.00,VWS V14.01,2013-03-19 20:18:00,
2013-03-19 13:24:00,69.1,32.3,30.14,WSW,248,12.8,13.2,26,0.00,,---,0.00,VWS V14.01,2013-03-19 20:24:00,
2013-03-19 13:29:00,68.7,32.0,30.14,SW,235,5.4,8.3,26,0.00,,---,0.00,VWS V14.01,2013-03-19 20:29:00,
2013-03-19 13:35:00,67.6,31.1,30.14,WNW,287,7.6,11.0,26,0.00,,---,0.00,VWS V14.01,2013-03-19 20:35:00,
2013-03-19 13:40:00,67.8,31.2,30.14,WSW,257,12.8,15.0,26,0.00,,---,0.00,VWS V14.01,2013-03-19 20:40:00,
2013-03-19 13:45:00,67.8,31.2,30.14,WSW,250,10.1,10.5,26,0.00,,---,0.00,VWS V14.01,2013-03-19 20:45:00,
2013-03-19 13:51:00,68.5,31.8,30.14,West,275,8.7,14.5,26,0.00,,---,0.00,VWS V14.01,2013-03-19 20:51:00,
2013-03-19 13:57:00,68.2,31.5,30.14,SW,222,11.0,12.8,26,0.00,,---,0.00,VWS V14.01,2013-03-19 20:57:00,
2013-03-19 14:02:00,68.5,31.8,30.14,WNW,292,10.1,10.1,26,0.00,,---,0.00,VWS V14.01,2013-03-19 21:02:00,
2013-03-19 14:07:00,68.5,31.8,30.14,West,265,10.1,12.3,26,0.00,,---,0.00,VWS V14.01,2013-03-19 21:07:00,
2013-03-19 14:13:00,68.5,31.8,30.14,West,265,5.8,8.7,26,0.00,,---,0.00,VWS V14.01,2013-03-19 21:13:00,
2013-03-19 14:18:00,69.1,32.3,30.14,West,279,7.6,10.1,26,0.00,,---,0.00,VWS V14.01,2013-03-19 21:18:00,
2013-03-19 14:24:00,67.6,31.1,30.11,West,275,7.2,11.9,26,0.00,,---,0.00,VWS V14.01,2013-03-19 21:24:00,
2013-03-19 14:29:00,68.0,31.4,30.11,West,265,11.0,11.0,26,0.00,,---,0.00,VWS V14.01,2013-03-19 21:29:00,
2013-03-19 14:34:00,67.5,30.9,30.11,WSW,258,8.3,11.0,26,0.00,,---,0.00,VWS V14.01,2013-03-19 21:34:00,
2013-03-19 14:39:00,67.5,30.9,30.11,WSW,252,8.7,10.1,26,0.00,,---,0.00,VWS V14.01,2013-03-19 21:39:00,
2013-03-19 14:45:00,67.8,31.2,30.11,WNW,290,7.6,10.1,26,0.00,,---,0.00,VWS V14.01,2013-03-19 21:45:00,
2013-03-19 14:50:00,68.0,31.4,30.11,West,259,8.1,8.3,26,0.00,,---,0.00,VWS V14.01,2013-03-19 21:50:00,
2013-03-19 14:56:00,68.4,31.7,30.11,West,267,8.1,9.2,26,0.00,,---,0.00,VWS V14.01,2013-03-19 21:56:00,
2013-03-19 15:01:00,68.5,31.8,30.11,WSW,247,8.1,12.8,26,0.00,,---,0.00,VWS V14.01,2013-03-19 22:01:00,
2013-03-19 15:06:00,68.7,32.0,30.11,NW,315,7.2,9.2,26,0.00,,---,0.00,VWS V14.01,2013-03-19 22:06:00,
2013-03-19 15:11:00,68.5,31.8,30.11,WSW,250,7.6,7.6,26,0.00,,---,0.00,VWS V14.01,2013-03-19 22:11:00,
2013-03-19 15:17:00,68.2,31.5,30.11,West,262,6.3,8.7,26,0.00,,---,0.00,VWS V14.01,2013-03-19 22:17:00,
2013-03-19 15:22:00,68.2,31.5,30.11,WSW,254,7.6,12.8,26,0.00,,---,0.00,VWS V14.01,2013-03-19 22:22:00,
2013-03-19 15:28:00,68.0,31.4,30.11,WSW,244,10.1,12.8,26,0.00,,---,0.00,VWS V14.01,2013-03-19 22:28:00,
2013-03-19 15:34:00,68.0,31.4,30.11,SW,222,8.1,10.5,26,0.00,,---,0.00,VWS V14.01,2013-03-19 22:34:00,
2013-03-19 15:39:00,67.5,30.9,30.11,West,272,12.3,13.2,26,0.00,,---,0.00,VWS V14.01,2013-03-19 22:39:00,
2013-03-19 15:45:00,67.8,31.2,30.11,WSW,250,8.7,8.7,26,0.00,,---,0.00,VWS V14.01,2013-03-19 22:45:00,
2013-03-19 15:51:00,68.7,32.0,30.11,WSW,249,12.8,12.8,26,0.00,,---,0.00,VWS V14.01,2013-03-19 22:51:00,
2013-03-19 15:57:00,68.5,31.8,30.11,WSW,243,10.5,11.0,26,0.00,,---,0.00,VWS V14.01,2013-03-19 22:57:00,
2013-03-19 16:02:00,69.1,32.3,30.11,WSW,250,8.7,11.0,26,0.00,,---,0.00,VWS V14.01,2013-03-19 23:02:00,
2013-03-19 16:08:00,68.4,35.8,30.11,WSW,257,7.6,8.1,30,0.00,,---,0.00,VWS V14.01,2013-03-19 23:08:00,
2013-03-19 16:14:00,67.6,35.1,30.11,WSW,246,8.7,8.7,30,0.00,,---,0.00,VWS V14.01,2013-03-19 23:14:00,
2013-03-19 16:20:00,67.5,35.0,30.11,West,259,10.5,10.5,30,0.00,,---,0.00,VWS V14.01,2013-03-19 23:20:00,
2013-03-19 16:26:00,67.1,34.7,30.11,NW,304,5.8,11.0,30,0.00,,---,0.00,VWS V14.01,2013-03-19 23:26:00,
2013-03-19 16:32:00,66.6,34.2,30.11,WSW,249,7.6,8.7,30,0.00,,---,0.00,VWS V14.01,2013-03-19 23:32:00,
2013-03-19 16:37:00,66.7,34.3,30.11,WNW,295,5.8,6.3,30,0.00,,---,0.00,VWS V14.01,2013-03-19 23:37:00,
2013-03-19 16:42:00,66.6,34.2,30.11,WNW,303,6.3,8.3,30,0.00,,---,0.00,VWS V14.01,2013-03-19 23:42:00,
2013-03-19 16:48:00,66.6,34.2,30.11,West,259,6.3,8.3,30,0.00,,---,0.00,VWS V14.01,2013-03-19 23:48:00,
2013-03-19 16:53:00,66.6,36.6,30.11,West,271,6.3,10.1,33,0.00,,---,0.00,VWS V14.01,2013-03-19 23:53:00,
2013-03-19 16:58:00,66.4,34.0,30.11,NW,307,6.3,8.1,30,0.00,,---,0.00,VWS V14.01,2013-03-19 23:58:00,
2013-03-19 17:04:00,65.8,37.1,30.11,West,264,8.3,8.3,34,0.00,,---,0.00,VWS V14.01,2013-03-20 00:04:00,
2013-03-19 17:09:00,65.5,36.8,30.11,WSW,253,6.3,10.1,34,0.00,,---,0.00,VWS V14.01,2013-03-20 00:09:00,
2013-03-19 17:15:00,65.5,36.8,30.11,West,274,10.1,11.0,34,0.00,,---,0.00,VWS V14.01,2013-03-20 00:15:00,
2013-03-19 17:20:00,64.6,36.0,30.11,NW,310,5.4,8.1,34,0.00,,---,0.00,VWS V14.01,2013-03-20 00:20:00,
2013-03-19 17:26:00,63.9,36.4,30.11,West,265,10.1,10.1,36,0.00,,---,0.00,VWS V14.01,2013-03-20 00:26:00,
2013-03-19 17:31:00,63.7,36.2,30.11,West,268,10.1,10.1,36,0.00,,---,0.00,VWS V14.01,2013-03-20 00:31:00,
2013-03-19 17:37:00,63.1,35.8,30.11,West,265,10.1,11.0,36,0.00,,---,0.00,VWS V14.01,2013-03-20 00:37:00,
2013-03-19 17:42:00,62.8,35.5,30.14,West,272,10.1,10.1,36,0.00,,---,0.00,VWS V14.01,2013-03-20 00:42:00,
2013-03-19 17:48:00,62.6,36.3,30.14,West,273,8.1,11.0,38,0.00,,---,0.00,VWS V14.01,2013-03-20 00:48:00,
2013-03-19 17:53:00,62.2,36.0,30.14,West,274,10.5,10.5,38,0.00,,---,0.00,VWS V14.01,2013-03-20 00:53:00,
2013-03-19 17:59:00,61.9,36.7,30.14,West,265,8.7,8.7,39,0.00,,---,0.00,VWS V14.01,2013-03-20 00:59:00,
2013-03-19 18:05:00,61.3,36.2,30.14,WSW,255,11.0,11.0,39,0.00,,---,0.00,VWS V14.01,2013-03-20 01:05:00,
2013-03-19 18:11:00,61.0,35.9,30.14,West,259,10.5,11.4,39,0.00,,---,0.00,VWS V14.01,2013-03-20 01:11:00,
2013-03-19 18:16:00,60.4,35.4,30.14,West,259,8.1,8.7,39,0.00,,---,0.00,VWS V14.01,2013-03-20 01:16:00,
2013-03-19 18:22:00,60.1,36.0,30.14,WSW,242,8.1,11.0,40,0.00,,---,0.00,VWS V14.01,2013-03-20 01:22:00,
2013-03-19 18:27:00,60.1,36.0,30.14,SSW,196,4.9,5.8,40,0.00,,---,0.00,VWS V14.01,2013-03-20 01:27:00,
2013-03-19 18:33:00,59.7,35.7,30.14,WSW,240,2.7,6.3,40,0.00,,---,0.00,VWS V14.01,2013-03-20 01:33:00,
2013-03-19 18:38:00,59.2,35.2,30.14,SSE,158,3.1,5.4,40,0.00,,---,0.00,VWS V14.01,2013-03-20 01:38:00,
2013-03-19 18:44:00,58.8,35.8,30.14,SW,231,3.6,4.0,42,0.00,,---,0.00,VWS V14.01,2013-03-20 01:44:00,
2013-03-19 18:50:00,58.6,35.6,30.14,WSW,255,5.4,5.4,42,0.00,,---,0.00,VWS V14.01,2013-03-20 01:50:00,
2013-03-19 18:55:00,58.1,35.2,30.14,WSW,255,5.8,5.8,42,0.00,,---,0.00,VWS V14.01,2013-03-20 01:55:00,
2013-03-19 19:01:00,57.9,35.9,30.14,WSW,241,5.4,5.4,44,0.00,,---,0.00,VWS V14.01,2013-03-20 02:01:00,
2013-03-19 19:06:00,57.6,35.5,30.14,WSW,254,5.4,5.4,44,0.00,,---,0.00,VWS V14.01,2013-03-20 02:06:00,
2013-03-19 19:12:00,57.2,35.2,30.14,West,264,4.9,5.4,44,0.00,,---,0.00,VWS V14.01,2013-03-20 02:12:00,
2013-03-19 19:17:00,56.3,36.1,30.14,WNW,289,4.0,5.4,46,0.00,,---,0.00,VWS V14.01,2013-03-20 02:17:00,
2013-03-19 19:22:00,55.8,36.4,30.14,WNW,283,4.0,4.0,48,0.00,,---,0.00,VWS V14.01,2013-03-20 02:22:00,
2013-03-19 19:28:00,55.4,36.1,30.14,West,275,3.1,3.6,48,0.00,,---,0.00,VWS V14.01,2013-03-20 02:28:00,
2013-03-19 19:33:00,55.0,36.5,30.14,WNW,288,4.0,4.0,50,0.00,,---,0.00,VWS V14.01,2013-03-20 02:33:00,
2013-03-19 19:39:00,54.0,35.5,30.14,WNW,284,4.0,4.9,50,0.00,,---,0.00,VWS V14.01,2013-03-20 02:39:00,
2013-03-19 19:44:00,53.4,36.5,30.14,WNW,285,4.5,4.5,52,0.00,,---,0.00,VWS V14.01,2013-03-20 02:44:00,
2013-03-19 19:50:00,53.4,37.2,30.14,WNW,283,0.0,0.0,54,0.00,,---,0.00,VWS V14.01,2013-03-20 02:50:00,
2013-03-19 19:55:00,53.2,37.0,30.17,WNW,293,3.1,3.6,54,0.00,,---,0.00,VWS V14.01,2013-03-20 02:55:00,
2013-03-19 20:01:00,53.4,37.2,30.17,West,277,3.1,4.0,54,0.00,,---,0.00,VWS V14.01,2013-03-20 03:01:00,
2013-03-19 20:06:00,54.3,38.0,30.17,West,263,2.2,3.1,54,0.00,,---,0.00,VWS V14.01,2013-03-20 03:06:00,
2013-03-19 20:12:00,54.5,38.2,30.17,SE,132,3.1,3.1,54,0.00,,---,0.00,VWS V14.01,2013-03-20 03:12:00,
2013-03-19 20:17:00,54.5,38.2,30.17,ESE,112,0.0,0.0,54,0.00,,---,0.00,VWS V14.01,2013-03-20 03:17:00,
2013-03-19 20:22:00,54.0,37.0,30.17,ESE,108,0.0,0.0,52,0.00,,---,0.00,VWS V14.01,2013-03-20 03:22:00,
2013-03-19 20:28:00,53.8,36.8,30.17,ESE,111,0.0,0.0,52,0.00,,---,0.00,VWS V14.01,2013-03-20 03:28:00,
2013-03-19 20:33:00,53.8,36.8,30.17,SE,124,0.0,0.0,52,0.00,,---,0.00,VWS V14.01,2013-03-20 03:33:00,
2013-03-19 20:39:00,53.1,36.9,30.17,ENE,68,3.1,3.6,54,0.00,,---,0.00,VWS V14.01,2013-03-20 03:39:00,
2013-03-19 20:44:00,51.8,35.7,30.17,NE,48,2.7,3.6,54,0.00,,---,0.00,VWS V14.01,2013-03-20 03:44:00,
2013-03-19 20:50:00,51.3,35.2,30.17,ENE,73,4.5,4.9,54,0.00,,---,0.00,VWS V14.01,2013-03-20 03:50:00,
2013-03-19 20:55:00,50.4,34.4,30.17,ENE,68,6.3,6.3,54,0.00,,---,0.00,VWS V14.01,2013-03-20 03:55:00,
2013-03-19 21:00:00,49.6,34.4,30.17,ENE,76,5.4,5.8,56,0.00,,---,0.00,VWS V14.01,2013-03-20 04:00:00,
2013-03-19 21:01:00,49.6,34.4,30.17,ENE,72,4.0,5.8,56,0.00,,---,0.00,VWS V14.01,2013-03-20 04:01:00,
2013-03-19 21:02:00,49.6,34.4,30.17,ENE,68,3.1,4.0,56,0.00,,---,0.00,VWS V14.01,2013-03-20 04:02:00,
2013-03-19 21:07:00,49.5,34.2,30.17,NE,55,3.1,3.1,56,0.00,,---,0.00,VWS V14.01,2013-03-20 04:07:00,
2013-03-19 21:09:00,49.5,34.2,30.17,NE,42,0.0,2.7,56,0.00,,---,0.00,VWS V14.01,2013-03-20 04:09:00,
2013-03-19 21:14:00,49.5,34.9,30.17,NE,37,2.7,3.1,57,0.00,,---,0.00,VWS V14.01,2013-03-20 04:14:00,
2013-03-19 21:20:00,49.5,34.9,30.17,NE,41,0.0,0.0,57,0.00,,---,0.00,VWS V14.01,2013-03-20 04:20:00,
2013-03-19 21:25:00,49.6,35.0,30.17,NE,42,0.0,0.0,57,0.00,,---,0.00,VWS V14.01,2013-03-20 04:25:00,
2013-03-19 21:31:00,49.6,35.0,30.17,ESE,120,0.0,0.0,57,0.00,,---,0.00,VWS V14.01,2013-03-20 04:31:00,
2013-03-19 21:36:00,49.3,34.7,30.17,ESE,116,0.0,0.0,57,0.00,,---,0.00,VWS V14.01,2013-03-20 04:36:00,
2013-03-19 21:41:00,49.1,34.5,30.17,East,79,3.6,4.0,57,0.00,,---,0.00,VWS V14.01,2013-03-20 04:41:00,
2013-03-19 21:46:00,48.6,34.0,30.17,East,92,0.0,2.7,57,0.00,,---,0.00,VWS V14.01,2013-03-20 04:46:00,
2013-03-19 21:52:00,48.2,34.3,30.17,East,99,0.0,2.2,58,0.00,,---,0.00,VWS V14.01,2013-03-20 04:52:00,
2013-03-19 21:57:00,47.7,33.8,30.17,East,80,4.0,5.4,58,0.00,,---,0.00,VWS V14.01,2013-03-20 04:57:00,
2013-03-19 22:02:00,47.3,33.5,30.17,ENE,76,0.0,0.0,58,0.00,,---,0.00,VWS V14.01,2013-03-20 05:02:00,
2013-03-19 22:08:00,46.9,33.8,30.17,NE,49,3.6,3.6,60,0.00,,---,0.00,VWS V14.01,2013-03-20 05:08:00,
2013-03-19 22:14:00,46.2,33.1,30.17,North,9,0.0,0.0,60,0.00,,---,0.00,VWS V14.01,2013-03-20 05:14:00,
2013-03-19 22:20:00,45.9,33.4,30.17,North,2,0.0,0.0,62,0.00,,---,0.00,VWS V14.01,2013-03-20 05:20:00,
2013-03-19 22:26:00,45.9,33.4,30.17,ENE,60,0.0,0.0,62,0.00,,---,0.00,VWS V14.01,2013-03-20 05:26:00,
2013-03-19 22:32:00,45.9,33.4,30.17,ENE,60,0.0,0.0,62,0.00,,---,0.00,VWS V14.01,2013-03-20 05:32:00,
2013-03-19 22:37:00,45.9,33.4,30.17,ENE,60,0.0,0.0,62,0.00,,---,0.00,VWS V14.01,2013-03-20 05:37:00,
2013-03-19 22:44:00,45.5,33.0,30.17,ENE,60,0.0,0.0,62,0.00,,---,0.00,VWS V14.01,2013-03-20 05:44:00,
2013-03-19 22:49:00,45.1,32.7,30.17,ENE,60,0.0,0.0,62,0.00,,---,0.00,VWS V14.01,2013-03-20 05:49:00,
2013-03-19 22:56:00,45.0,32.5,30.17,ENE,64,0.0,0.0,62,0.00,,---,0.00,VWS V14.01,2013-03-20 05:56:00,
2013-03-19 23:02:00,44.8,32.4,30.17,ENE,64,0.0,0.0,62,0.00,,---,0.00,VWS V14.01,2013-03-20 06:02:00,
2013-03-19 23:07:00,44.6,32.2,30.17,SSE,158,0.0,2.2,62,0.00,,---,0.00,VWS V14.01,2013-03-20 06:07:00,
2013-03-19 23:12:00,44.1,32.3,30.17,East,98,3.6,5.4,63,0.00,,---,0.00,VWS V14.01,2013-03-20 06:12:00,
2013-03-19 23:17:00,43.5,32.4,30.17,ESE,104,3.1,3.1,64,0.00,,---,0.00,VWS V14.01,2013-03-20 06:17:00,
2013-03-19 23:23:00,43.3,33.3,30.17,ESE,106,2.7,3.6,68,0.00,,---,0.00,VWS V14.01,2013-03-20 06:23:00,
2013-03-19 23:29:00,43.3,33.3,30.17,East,83,3.6,3.6,68,0.00,,---,0.00,VWS V14.01,2013-03-20 06:29:00,
2013-03-19 23:34:00,43.3,33.9,30.17,NW,320,0.0,0.0,69,0.00,,---,0.00,VWS V14.01,2013-03-20 06:34:00,
2013-03-19 23:40:00,43.0,33.5,30.17,East,100,0.0,0.0,69,0.00,,---,0.00,VWS V14.01,2013-03-20 06:40:00,
2013-03-19 23:45:00,42.6,33.7,30.17,East,83,4.0,4.9,70,0.00,,---,0.00,VWS V14.01,2013-03-20 06:45:00,
2013-03-19 23:50:00,42.8,34.4,30.17,ESE,115,0.0,0.0,72,0.00,,---,0.00,VWS V14.01,2013-03-20 06:50:00,
2013-03-19 23:57:00,42.8,34.4,30.17,SE,142,0.0,3.6,72,0.00,,---,0.00,VWS V14.01,2013-03-20 06:57:00,